[[{"header":{"parameterUnit":"m.s-1","parameterCategory":1,"la1":30.2991,"la2":30.254,"lo1":-89.0895,"lo2":-89.0444,"dy":0.0017,"dx":0.0017,"nx":28,"ny":28,"refTime":"2023-09-03T09:00:00:Z","depth":0,"parameterNumber":2,"parameterNumberName":"U-component_of_WINDS"},"data":[0,0,0,0,0,0,0,0,0,0,0,0,0,0,0,0,0,0,0,0,0,0,0,0,0,0,0,0,0,0,0,0,0,0,0,0,0,0,0,0,0,0,0,0,0,0,0,0,0,0,0,0,0,0,0,0,0,0,-4.5843,-4.5843,0,-4.5883,-4.5883,-4.5884,-4.5853,-4.5852,-4.5851,-4.585,-4.5886,-4.5888,-4.5891,0,0,0,0,0,0,0,0,0,0,0,0,0,-4.5736,-4.5738,-4.5843,-4.5843,-4.5844,-4.5883,-4.5883,-4.5884,-4.5854,-4.5852,-4.585,-4.5849,-4.5886,-4.5888,-4.5891,0,0,0,0,0,0,0,0,0,0,0,0,0,-4.578,-4.5739,-4.5843,-4.5833,-4.5833,-4.5883,-4.5883,-4.5884,-4.5854,-4.5852,-4.585,-4.5848,-4.5885,-4.5888,-4.5891,-4.595,0,0,-4.5901,-4.5903,0,0,0,0,0,0,0,0,-4.5777,-4.5784,-4.5834,-4.5834,-4.5834,-4.5861,-4.5859,-4.5906,-4.5854,-4.5846,-4.585,-4.5847,-4.5879,-4.5883,-4.5894,-4.5952,-4.5954,-4.5901,-4.5903,-4.5905,-4.5906,0,0,0,0,0,0,0,-4.5774,-4.5782,-4.5858,-4.5835,-4.5835,-4.5826,-4.583,-4.5868,-4.5873,-4.5846,-4.5844,-4.585,-4.5879,-4.5891,-4.5895,-4.5954,-4.5901,-4.5904,-4.5906,-4.5908,-4.6062,-4.6064,0,0,0,0,0,0,-4.5773,-4.5779,-4.5857,-4.586,-4.58,-4.583,-4.5834,-4.5854,-4.5872,-4.5873,-4.5851,-4.5848,-4.5887,-4.5891,-4.5896,-4.5966,-4.5905,-4.5908,-4.591,-4.606,-4.6062,-4.6065,0,0,0,0,0,0,-4.5771,-4.578,-4.5855,-4.5819,-4.5828,-4.5834,-4.5856,-4.5856,-4.5869,-4.5876,-4.5876,-4.5864,-4.5885,-4.5892,-4.5937,-4.5967,-4.5909,-4.5912,-4.6057,-4.606,-4.6063,-4.6107,0,0,0,0,0,0,-4.5768,-4.5779,-4.5803,-4.582,-4.583,-4.5897,-4.5858,-4.5858,-4.5875,-4.5871,-4.5888,-4.5889,-4.5884,-4.5933,-4.5941,-4.597,-4.5915,-4.6054,-4.6059,-4.6062,-4.6103,-4.6111,-4.6118,0,0,0,0,0,-4.5764,-4.5813,-4.5804,-4.5814,-4.586,-4.5899,-4.5904,-4.59,-4.5878,-4.59,-4.5905,-4.5888,-4.5963,-4.5938,-4.5946,-4.5977,-4.6053,-4.6057,-4.6062,-4.6099,-4.6109,-4.6118,0,0,0,0,0,0,-4.5797,-4.5815,-4.5805,-4.5861,-4.5879,-4.5894,-4.5922,-4.5911,-4.5934,-4.5929,-4.5921,-4.5925,-4.5973,-4.598,-4.5951,-4.6036,-4.6004,-4.6011,-4.6029,-4.6039,-4.6047,-4.6043,-4.5918,0,0,0,0,0,-4.5811,-4.5843,-4.5856,-4.5904,-4.5914,-4.5917,-4.5933,-4.5929,-4.5946,-4.5953,-4.5961,-4.5977,-4.6004,-4.6022,-4.6048,-4.6104,-4.6106,-4.613,-4.6138,-4.6144,-4.6149,-4.6179,-4.6189,-4.608,-4.608,-4.608,0,0,-4.584,-4.5853,-4.5874,-4.5911,-4.5924,-4.5956,-4.5923,-4.5958,-4.5981,-4.5958,-4.6001,-4.6008,-4.6026,-4.6077,-4.61,-4.6084,-4.618,-4.615,-4.6155,-4.6157,-4.6185,-4.6195,-4.6204,-4.6084,-4.6083,-4.6082,0,0,-4.5908,-4.5922,-4.5964,-4.5978,-4.5999,-4.6001,-4.6011,-4.6028,-4.6032,-4.6076,-4.6059,-4.6086,-4.6133,-4.6146,-4.6159,-4.6234,-4.6218,-4.6243,-4.6282,-4.6311,-4.632,-4.6327,-4.6353,-4.6362,-4.6248,-4.6248,-4.6248,0,-4.5941,-4.5989,-4.5986,-4.6022,-4.6039,-4.6021,-4.6062,-4.6076,-4.6103,-4.6114,-4.6097,-4.6156,-4.6167,-4.622,-4.6239,-4.625,-4.626,-4.624,-4.6319,-4.6327,-4.6333,-4.6357,-4.6367,-4.6251,-4.6251,-4.625,-4.625,0,-4.6027,-4.6061,-4.6092,-4.6121,-4.6141,-4.6179,-4.6181,-4.6201,-4.6195,-4.6198,-4.6243,-4.6256,-4.6283,-4.6296,-4.629,-4.6349,-4.6338,-4.632,-4.6288,-4.6347,-4.6369,-4.6378,-4.6255,-4.6254,-4.6253,-4.6252,0,0,-4.6116,-4.6144,-4.6155,-4.6168,-4.619,-4.6215,-4.6253,-4.6281,-4.6299,-4.6319,-4.6349,-4.639,-4.6373,-4.6388,-4.6383,-4.6409,-4.6466,-4.6387,-4.6388,-4.64,-4.653,-4.6543,-4.6554,-4.6457,-4.6458,-4.646,-4.6528,0,-4.6184,-4.6251,-4.625,-4.6311,-4.6342,-4.6326,-4.6358,-4.6375,-4.638,-4.6405,-4.641,-4.6438,-4.6415,-4.6424,-4.6449,-4.6454,-4.6492,-4.6449,-4.6483,-4.6484,-4.6477,-4.6566,-4.6579,-4.6643,-4.6537,-4.6539,-4.654,0,-4.6273,-4.6298,-4.6363,-4.6381,-4.6393,-4.6423,-4.6449,-4.6474,-4.6492,-4.6493,-4.6511,-4.6502,-4.6539,-4.6507,-4.6557,-4.6528,-4.6542,-4.6546,-4.6549,-4.655,-4.6514,-4.6568,-4.6663,-4.6672,-4.6554,-4.6553,-4.6552,0,-4.633,-4.6379,-4.6424,-4.6436,-4.6458,-4.6479,-4.6489,-4.6506,-4.6523,-4.6545,-4.6556,-4.6582,-4.6596,-4.6616,-4.6614,-4.6591,-4.6664,-4.6632,-4.6664,-4.6664,-4.6679,-4.6678,-4.6776,-4.6691,-4.6691,-4.669,-4.669,0,-4.6405,-4.6445,-4.645,-4.6477,-4.6521,-4.6519,-4.6562,-4.657,-4.6585,-4.6613,-4.6601,-4.6627,-4.6623,-4.6649,-4.6648,-4.6688,-4.6695,-4.6696,-4.6695,-4.6696,-4.6696,-4.6704,-4.6699,-4.6693,-4.6692,-4.6692,-4.6691,0,-4.6475,-4.648,-4.6528,-4.6546,-4.6552,-4.6583,-4.6598,-4.6623,-4.6627,-4.6663,-4.6671,-4.6677,-4.6706,-4.6707,-4.6741,-4.674,-4.6789,-4.6784,-4.6783,-4.6782,-4.6814,-4.681,-4.6919,-4.6933,-4.684,-4.6841,-4.6842,0,-4.6523,-4.6553,-4.6575,-4.6594,-4.6605,-4.6635,-4.6653,-4.6652,-4.6671,-4.6695,-4.6717,-4.6746,-4.6769,-4.6817,-4.6824,-4.6849,-4.6843,-4.688,-4.6847,-4.6847,-4.6842,-4.684,-4.6842,-4.6886,-4.6887,-4.6888,-4.6888,0,-4.6606,-4.6607,-4.6634,-4.6662,-4.6684,-4.6706,-4.6726,-4.6742,-4.6743,-4.6764,-4.6796,-4.6814,-4.6849,-4.6877,-4.6903,-4.6911,-4.69,-4.6899,-4.6908,-4.6908,-4.6906,-4.6907,-4.6799,-4.6896,-4.6895,-4.6895,-4.6894,-4.6894,-4.6665,-4.6691,-4.6711,-4.6741,-4.6757,-4.6776,-4.6801,-4.6809,-4.6835,-4.6865,-4.6862,-4.6897,-4.6914,-4.6946,-4.6958,-4.6983,-4.697,-4.6983,-4.6986,-4.6989,-4.6992,-4.6904,-4.6988,-4.6988,-4.6988,-4.6987,-4.6987,0,-4.6746,-4.6758,-4.6787,-4.6816,-4.684,-4.6829,-4.6851,-4.6871,-4.6902,-4.6919,-4.6943,-4.6978,-4.7006,-4.7015,-4.7042,-4.7061,-4.7056,-4.7068,-4.7065,-4.7067,-4.7002,-4.6992,-4.7071,-4.7071,-4.7071,-4.7071,-4.7071,-4.7071,-4.6791,-4.6835,-4.6839,-4.689,-4.6901,-4.6936,-4.6949,-4.6966,-4.698,-4.7021,-4.7045,-4.7051,-4.7065,-4.7093,-4.7117,-4.7119,-4.7129,-4.7142,-4.7142,-4.708,-4.7072,-4.7064,-4.7054,-4.7145,-4.7145,-4.7204,-4.7205,-4.7205]},{"header":{"parameterUnit":"m.s-1","parameterCategory":1,"la1":30.2991,"la2":30.254,"lo1":-89.0895,"lo2":-89.0444,"dy":0.0017,"dx":0.0017,"nx":28,"ny":28,"refTime":"2023-09-03T09:00:00:Z","depth":0,"parameterNumber":3,"parameterNumberName":"V-component_of_WINDS"},"data":[0,0,0,0,0,0,0,0,0,0,0,0,0,0,0,0,0,0,0,0,0,0,0,0,0,0,0,0,0,0,0,0,0,0,0,0,0,0,0,0,0,0,0,0,0,0,0,0,0,0,0,0,0,0,0,0,0,0,4.8555,4.8555,0,4.8595,4.8595,4.8595,4.8581,4.858,4.8579,4.8578,4.8615,4.8616,4.8618,0,0,0,0,0,0,0,0,0,0,0,0,0,4.8463,4.8464,4.8555,4.8555,4.8556,4.8594,4.8595,4.8596,4.8581,4.858,4.8579,4.8578,4.8614,4.8616,4.8618,0,0,0,0,0,0,0,0,0,0,0,0,0,4.8502,4.8465,4.8555,4.8553,4.8553,4.8594,4.8595,4.8596,4.8581,4.858,4.8578,4.8577,4.8613,4.8616,4.8619,4.8662,0,0,4.8627,4.8628,0,0,0,0,0,0,0,0,4.85,4.8506,4.8553,4.8553,4.8554,4.8581,4.8576,4.8618,4.8581,4.857,4.8578,4.8577,4.8604,4.8608,4.8618,4.8664,4.8665,4.8627,4.8629,4.863,4.8631,0,0,0,0,0,0,0,4.8497,4.8504,4.857,4.8554,4.8554,4.8549,4.8554,4.8584,4.8594,4.8571,4.857,4.8576,4.8604,4.8615,4.8619,4.8666,4.8627,4.8629,4.8631,4.8632,4.875,4.8752,0,0,0,0,0,0,4.8495,4.8502,4.8569,4.8571,4.8523,4.8552,4.8557,4.8574,4.8594,4.8596,4.8577,4.8575,4.8611,4.8616,4.862,4.8673,4.863,4.8632,4.8634,4.8749,4.875,4.8752,0,0,0,0,0,0,4.8493,4.8501,4.8567,4.8537,4.8545,4.8555,4.8574,4.8575,4.8586,4.8598,4.8599,4.8586,4.8611,4.8616,4.8652,4.8674,4.8634,4.8636,4.8747,4.8749,4.8751,4.8778,0,0,0,0,0,0,4.8491,4.8501,4.8518,4.8537,4.8546,4.86,4.8576,4.8577,4.8592,4.8589,4.8607,4.8609,4.861,4.8648,4.8655,4.8677,4.8638,4.8745,4.8748,4.8751,4.8775,4.8781,4.8786,0,0,0,0,0,4.8487,4.8523,4.8519,4.8527,4.8568,4.8601,4.8606,4.8608,4.8593,4.861,4.8618,4.8609,4.8671,4.8652,4.8659,4.8682,4.8744,4.8747,4.875,4.8773,4.878,4.8786,0,0,0,0,0,0,4.8503,4.8525,4.8521,4.8564,4.8581,4.8599,4.862,4.8615,4.8636,4.8632,4.8632,4.8636,4.8674,4.8682,4.8661,4.8726,4.8705,4.871,4.8719,4.8726,4.8731,4.8728,4.864,0,0,0,0,0,4.8512,4.8539,4.8555,4.8591,4.8601,4.8609,4.8623,4.8624,4.8641,4.8647,4.8658,4.8674,4.8697,4.8712,4.8734,4.8777,4.878,4.8796,4.8801,4.8806,4.881,4.8834,4.8841,4.8763,4.8763,4.8763,0,0,4.853,4.8545,4.8561,4.8595,4.8609,4.8635,4.8615,4.8643,4.8663,4.8651,4.8686,4.8695,4.8712,4.8753,4.8771,4.876,4.8833,4.881,4.8813,4.8815,4.8838,4.8846,4.8852,4.8766,4.8765,4.8765,0,0,4.8576,4.859,4.8623,4.8637,4.8659,4.8664,4.8672,4.8691,4.8697,4.8733,4.8725,4.8747,4.8787,4.88,4.8812,4.8866,4.8858,4.8873,4.89,4.8924,4.893,4.8935,4.8954,4.8961,4.8877,4.8877,4.8877,0,4.8595,4.8636,4.8639,4.8669,4.8684,4.8677,4.871,4.8723,4.875,4.876,4.8748,4.8799,4.881,4.8854,4.8867,4.8877,4.8886,4.8871,4.8929,4.8934,4.8939,4.8958,4.8965,4.8879,4.8879,4.8879,4.8878,0,4.8659,4.8687,4.871,4.8739,4.8756,4.8787,4.8794,4.8812,4.8811,4.8817,4.8854,4.8868,4.8893,4.8904,4.8902,4.8947,4.894,4.8929,4.8907,4.8949,4.8966,4.8973,4.8881,4.8881,4.888,4.888,0,0,4.8714,4.8746,4.8755,4.8768,4.8792,4.8813,4.8844,4.887,4.8885,4.8904,4.893,4.8965,4.8955,4.8969,4.8968,4.8989,4.9031,4.8975,4.8976,4.8985,4.9082,4.9091,4.9099,4.9026,4.9028,4.9029,4.9081,0,4.8763,4.8818,4.8823,4.8872,4.8899,4.8893,4.892,4.8937,4.8945,4.8967,4.8975,4.9,4.8985,4.8993,4.9014,4.9022,4.9051,4.9018,4.9049,4.905,4.9045,4.9108,4.9116,4.9165,4.9087,4.9089,4.9089,0,4.8826,4.885,4.8902,4.8924,4.8935,4.8959,4.8985,4.9007,4.9026,4.903,4.9047,4.9044,4.9075,4.9053,4.9095,4.9073,4.9086,4.9092,4.9094,4.9097,4.9072,4.9112,4.918,4.9187,4.91,4.9099,4.9098,0,4.8862,4.8907,4.8944,4.8956,4.8982,4.8999,4.9011,4.9029,4.9045,4.9066,4.9077,4.9101,4.9114,4.9133,4.9137,4.9121,4.9179,4.9157,4.9183,4.9183,4.9195,4.9194,4.9266,4.9204,4.9203,4.9203,4.9203,0,4.8915,4.8948,4.8961,4.8984,4.9021,4.9025,4.9061,4.9071,4.9088,4.9112,4.9108,4.9131,4.9135,4.9158,4.9161,4.9196,4.9202,4.9205,4.9206,4.9206,4.9205,4.9214,4.921,4.9205,4.9205,4.9204,4.9204,0,4.8961,4.8972,4.9012,4.9035,4.9041,4.9067,4.9086,4.9107,4.9115,4.9146,4.9154,4.9165,4.9193,4.9199,4.9231,4.9233,4.9274,4.9271,4.9268,4.9268,4.9293,4.929,4.9373,4.9384,4.9314,4.9315,4.9315,0,4.8995,4.902,4.9046,4.9063,4.9076,4.9103,4.912,4.9126,4.9144,4.9169,4.9187,4.9215,4.9237,4.9281,4.9292,4.9316,4.9314,4.9341,4.9317,4.9317,4.9314,4.9313,4.9315,4.9345,4.9346,4.9347,4.9347,0,4.9053,4.9057,4.9083,4.9111,4.9132,4.9154,4.9174,4.9188,4.9197,4.9217,4.9246,4.9263,4.9297,4.9325,4.935,4.936,4.9355,4.9355,4.9362,4.9362,4.9359,4.9361,4.928,4.9353,4.9352,4.9352,4.9351,4.9351,4.9094,4.9116,4.9139,4.9168,4.9185,4.9204,4.9227,4.9238,4.9263,4.9293,4.9294,4.9326,4.9345,4.9379,4.9391,4.9415,4.9406,4.9417,4.9419,4.9422,4.9424,4.9356,4.942,4.9419,4.9419,4.9419,4.9419,0,4.9152,4.9167,4.9193,4.9224,4.9247,4.9242,4.9265,4.9284,4.9313,4.9332,4.9355,4.9389,4.9415,4.9429,4.9455,4.9472,4.947,4.9479,4.9477,4.948,4.943,4.9422,4.948,4.948,4.948,4.948,4.948,4.948,4.9185,4.9224,4.9231,4.9278,4.9292,4.9324,4.9338,4.9356,4.9372,4.941,4.9433,4.9443,4.946,4.9487,4.9512,4.9515,4.9524,4.9534,4.9536,4.9489,4.9483,4.9477,4.9469,4.9536,4.9536,4.9584,4.9584,4.9584]}]]